Regional Weather Roundup
Issued by NWS Newport/Morehead, NC

Current Version | Previous Version | Graphics & Text | Print | Product List | Glossary On
Versions: 1 2 3 4 5 6 7 8 9 10 11 12 13 14 15 16 17 18 19 20 21 22 23 24 25 26 27 28 29 30 31 32 33 34 35 36 37 38 39 40 41 42 43 44 45 46 47 48 49 50
000 ASUS42 KMHX 061413 RWRMHX WEATHER ROUNDUP FOR EASTERN NORTH CAROLINA NATIONAL WEATHER SERVICE NEWPORT/MOREHEAD CITY NC 900 AM EST SAT FEB 06 2016 NOTE: "FAIR" INDICATES FEW OR NO CLOUDS BELOW 12,000 FEET WITH NO SIGNIFICANT WEATHER AND/OR OBSTRUCTIONS TO VISIBILITY NCZ015>017-031-032-045>047-102-103-061500- NORTH COAST CITY SKY/WX TMP DP RH WIND PRES REMARKS EDENTON CLOUDY 37 31 78 NE3 30.48S ELIZABETH CITY PTSUNNY 39 31 72 N6 30.47F KITTY HAWK MOSUNNY 43 28 56 N7 30.43F MANTEO MOSUNNY 42 30 63 N10 30.45F $$ NCZ045>047-081-094-103-104-061500- CENTRAL COAST CITY SKY/WX TMP DP RH WIND PRES REMARKS FRISCO MOSUNNY 45 33 63 VRB7 30.43R SWANQUARTER N/A 41 N/A N/A N2G9 30.41S $$ NCZ095-097-098-100-101-061500- SOUTHERN COAST CITY SKY/WX TMP DP RH WIND PRES REMARKS BEAUFORT MOSUNNY 40 29 64 N13G21 30.42S CEDAR ISLAND N/A 43 N/A N/A NW17 30.50R JACKSONVILLE MOSUNNY 40 27 59 N12 30.42S PINEY ISLAND CLOUDY N/A N/A N/A N15 30.44S WILMINGTON CLOUDY 38 32 79 N8 30.43R $$ NCZ011>013-027>030-043-044-078>080-089-090>093-098-061500- COASTAL PLAIN CITY SKY/WX TMP DP RH WIND PRES REMARKS AHOSKIE MOSUNNY 29 28 93 CALM 30.48S CLINTON MOSUNNY 38 28 65 NE5 30.46R ELIZABETHTOWN CLOUDY 36 29 76 CALM 30.45R GOLDSBORO MOSUNNY 37 32 81 NE7 30.44S GREENVILLE PTSUNNY 34 32 93 N3 30.47S HAVELOCK MOSUNNY 42 29 59 N13 30.43F KENANSVILLE N/A 36 30 79 CALM 30.46S KINSTON NOT AVBL NEW BERN SUNNY 39 29 67 NE13 30.45F RICHLANDS PTSUNNY 37 25 60 N10 30.43F ROCKY MOUNT MOSUNNY 32 29 88 CALM 30.47F WASHINGTON MOSUNNY 35 29 80 CALM 30.47S WHITEVILLE PTSUNNY 39 29 67 NE13 30.42S $$ AMZ130-135-150-152-154-156-158-170-250-252-270-ANZ085-086-088-633-658-670-061500- MARINE OBSERVATIONS STATION/POSITION TIME TEMP WIND PRES WAVE SWELL AIR SEA DIR/SP/G HT/PER HT/PER (UTC) (F) (DEG/KT/KT) (MB) (FT/S) (FT/S) CHESAPEAKE LIGHT 1400 40 50/ 4/ 5 1032.3 64 E VA BEACH 1350 43 54 10/ 8/ 12 1031.2 6/10 7/10 DUCK 1300 41 45 30/ 5/ 8 1031.1 2 E DUCK 1311 44 N/A 4/10 2/11 OREGON INLET 1300 42 45 340/ 8/ 10 1030.9 13E OREGON INLT 1400 46 N/A 6/11 3/11 HATTERAS CG 1300 43 53 340/ 16/ 20 1030.0 DIAMOND BUOY 1350 47 73 360/ 17/ 23 1029.6 6/11 5/11 CAPE LOOKOUT NOT AVBL BEAUFORT LAB 1300 39 51 20/ 11/ 13 1028.8 30 SE NEW RVR IN 1308 47 65 1027.9 30 SE NEW RVR IN 1325 65 N/A 4/ 5 2/12 27 SE WRIGHTSVLE 1308 48 69 360/ 17/ 25 1028.5 5 SE WRIGHTSVLE 1308 44 54 30/ 17/ 21 1029.7 225 S CAPE HAT 1350 61 69 50/ 12/ 16 N/A 9/12 8/12 41 SE CHARLESTON 1350 52 66 20/ 23/ 27 1026.8 6/ 6 3/ 9 $$

USA.gov is the U.S. government's official web portal to all federal, state and local government web resources and services.